| time (UTC) | temp F | wind direction | speed MPH | gust MPH | rain 1hr in | rain 24hr in | rain mn in | humidity % | barometer mb |
| 20260504233753 | 72 | 146 | 0.0 | 1.0 | 0.00 | 0.00 | 0.00 | 39 | 1013.2 |
| 20260504233249 | 73 | 157 | 0.0 | 1.0 | 0.00 | 0.00 | 0.00 | 39 | 1013.3 |
| 20260504232746 | 73 | 189 | 1.0 | 2.0 | 0.00 | 0.00 | 0.00 | 37 | 1013.1 |
| 20260504232243 | 73 | 180 | 1.0 | 2.0 | 0.00 | 0.00 | 0.00 | 36 | 1013.0 |
| 20260504231740 | 74 | 149 | 2.0 | 3.0 | 0.00 | 0.00 | 0.00 | 36 | 1013.0 |
| 20260504231237 | 74 | 119 | 1.0 | 2.0 | 0.00 | 0.00 | 0.00 | 36 | 1013.0 |
| 20260504230732 | 74 | 154 | 1.0 | 6.0 | 0.00 | 0.00 | 0.00 | 35 | 1013.0 |
| 20260504230231 | 75 | 214 | 1.0 | 3.0 | 0.00 | 0.00 | 0.00 | 36 | 1013.1 |
| 20260504225730 | 75 | 187 | 2.0 | 7.0 | 0.00 | 0.00 | 0.00 | 34 | 1013.0 |
| 20260504225226 | 75 | 161 | 1.0 | 2.0 | 0.00 | 0.00 | 0.00 | 34 | 1013.1 |
| 20260504224723 | 75 | 134 | 2.0 | 4.0 | 0.00 | 0.00 | 0.00 | 34 | 1013.2 |
| 20260504224220 | 75 | 170 | 2.0 | 4.0 | 0.00 | 0.00 | 0.00 | 34 | 1013.2 |
| 20260504223716 | 75 | 186 | 2.0 | 4.0 | 0.00 | 0.00 | 0.00 | 34 | 1013.2 |
| 20260504223212 | 76 | 198 | 0.0 | 3.0 | 0.00 | 0.00 | 0.00 | 33 | 1013.1 |
| 20260504222709 | 76 | 156 | 2.0 | 3.0 | 0.00 | 0.00 | 0.00 | 34 | 1013.1 |
| 20260504222206 | 76 | 183 | 1.0 | 1.0 | 0.00 | 0.00 | 0.00 | 33 | 1013.0 |
| 20260504221703 | 76 | 142 | 0.0 | 2.0 | 0.00 | 0.00 | 0.00 | 33 | 1013.1 |
| 20260504221200 | 77 | 214 | 2.0 | 4.0 | 0.00 | 0.00 | 0.00 | 32 | 1012.9 |
| 20260504220656 | 76 | 219 | 1.0 | 4.0 | 0.00 | 0.00 | 0.00 | 32 | 1012.9 |
| 20260504220155 | 76 | 161 | 4.0 | 7.0 | 0.00 | 0.00 | 0.00 | 33 | 1013.1 |
| 20260504215650 | 77 | 167 | 0.0 | 3.0 | 0.00 | 0.00 | 0.00 | 32 | 1012.9 |
| 20260504215148 | 77 | 132 | 0.0 | 1.0 | 0.00 | 0.00 | 0.00 | 33 | 1012.9 |
| 20260504214643 | 77 | 146 | 3.0 | 4.0 | 0.00 | 0.00 | 0.00 | 31 | 1012.8 |
| 20260504214140 | 78 | 154 | 2.0 | 4.0 | 0.00 | 0.00 | 0.00 | 32 | 1012.9 |
| 20260504213637 | 79 | 226 | 3.0 | 4.0 | 0.00 | 0.00 | 0.00 | 31 | 1013.1 |
| 20260504213134 | 79 | 171 | 0.0 | 10.0 | 0.00 | 0.00 | 0.00 | 31 | 1012.9 |
| 20260504212630 | 79 | 172 | 1.0 | 6.0 | 0.00 | 0.00 | 0.00 | 31 | 1013.1 |
| 20260504212127 | 79 | 219 | 2.0 | 6.0 | 0.00 | 0.00 | 0.00 | 30 | 1012.9 |
| 20260504211625 | 79 | 184 | 0.0 | 2.0 | 0.00 | 0.00 | 0.00 | 33 | 1013.1 |
| 20260504211121 | 79 | 216 | 2.0 | 6.0 | 0.00 | 0.00 | 0.00 | 31 | 1013.0 |
| 20260504210619 | 81 | 183 | 1.0 | 6.0 | 0.00 | 0.00 | 0.00 | 30 | 1012.9 |
| 20260504210114 | 79 | 195 | 0.0 | 3.0 | 0.00 | 0.00 | 0.00 | 31 | 1013.0 |
| 20260504205612 | 79 | 165 | 1.0 | 4.0 | 0.00 | 0.00 | 0.00 | 34 | 1012.8 |
| 20260504205110 | 78 | 196 | 3.0 | 4.0 | 0.00 | 0.00 | 0.00 | 32 | 1013.0 |
| 20260504204608 | 79 | 193 | 2.0 | 4.0 | 0.00 | 0.00 | 0.00 | 31 | 1012.9 |
| 20260504204107 | 80 | 217 | 1.0 | 4.0 | 0.00 | 0.00 | 0.00 | 31 | 1013.1 |
| 20260504203605 | 80 | 188 | 0.0 | 3.0 | 0.00 | 0.00 | 0.00 | 31 | 1013.1 |
| 20260504203102 | 79 | 186 | 1.0 | 3.0 | 0.00 | 0.00 | 0.00 | 31 | 1013.3 |
| 20260504202557 | 80 | 202 | 3.0 | 6.0 | 0.00 | 0.00 | 0.00 | 31 | 1013.3 |
| 20260504202054 | 80 | 178 | 2.0 | 2.0 | 0.00 | 0.00 | 0.00 | 33 | 1013.5 |
| 20260504201551 | 80 | 180 | 0.0 | 2.0 | 0.00 | 0.00 | 0.00 | 31 | 1013.3 |
| 20260504201049 | 78 | 183 | 0.0 | 2.0 | 0.00 | 0.00 | 0.00 | 34 | 1013.3 |
| 20260504200545 | 78 | 214 | 3.0 | 6.0 | 0.00 | 0.00 | 0.00 | 32 | 1013.3 |
| 20260504200042 | 79 | 143 | 5.0 | 8.0 | 0.00 | 0.00 | 0.00 | 31 | 1013.4 |
| 20260504195538 | 79 | 169 | 1.0 | 2.0 | 0.00 | 0.00 | 0.00 | 32 | 1013.5 |
| 20260504195035 | 80 | 118 | 1.0 | 6.0 | 0.00 | 0.00 | 0.00 | 32 | 1013.6 |
| 20260504194531 | 78 | 183 | 2.0 | 2.0 | 0.00 | 0.00 | 0.00 | 32 | 1013.8 |
| 20260504194027 | 78 | 290 | 3.0 | 3.0 | 0.00 | 0.00 | 0.00 | 32 | 1013.8 |
| 20260504193524 | 77 | 169 | 0.0 | 0.0 | 0.00 | 0.00 | 0.00 | 32 | 1013.9 |
| 20260504193022 | 76 | 186 | 2.0 | 7.0 | 0.00 | 0.00 | 0.00 | 33 | 1014.0 |
| 20260504192520 | 76 | 130 | 2.0 | 3.0 | 0.00 | 0.00 | 0.00 | 33 | 1014.1 |
| 20260504192018 | 77 | 169 | 0.0 | 0.0 | 0.00 | 0.00 | 0.00 | 34 | 1014.1 |
| 20260504191516 | 77 | 211 | 2.0 | 3.0 | 0.00 | 0.00 | 0.00 | 32 | 1014.1 |
| 20260504191012 | 77 | 182 | 1.0 | 1.0 | 0.00 | 0.00 | 0.00 | 34 | 1014.5 |
| 20260504190508 | 77 | 203 | 1.0 | 2.0 | 0.00 | 0.00 | 0.00 | 32 | 1014.4 |
| 20260504190004 | 77 | 190 | 0.0 | 2.0 | 0.00 | 0.00 | 0.00 | 31 | 1014.5 |
| 20260504185501 | 76 | 135 | 2.0 | 3.0 | 0.00 | 0.00 | 0.00 | 30 | 1014.3 |
| 20260504184958 | 76 | 160 | 2.0 | 2.0 | 0.00 | 0.00 | 0.00 | 31 | 1014.4 |
| 20260504184453 | 76 | 207 | 2.0 | 4.0 | 0.00 | 0.00 | 0.00 | 31 | 1014.7 |
| 20260504183949 | 76 | 144 | 2.0 | 6.0 | 0.00 | 0.00 | 0.00 | 31 | 1014.5 |
| 20260504183446 | 75 | 175 | 0.0 | 2.0 | 0.00 | 0.00 | 0.00 | 34 | 1014.5 |
| 20260504182944 | 76 | 215 | 2.0 | 6.0 | 0.00 | 0.00 | 0.00 | 31 | 1014.6 |
| 20260504182440 | 76 | 181 | 0.0 | 1.0 | 0.00 | 0.00 | 0.00 | 35 | 1014.8 |
| 20260504181938 | 76 | 151 | 2.0 | 3.0 | 0.00 | 0.00 | 0.00 | 34 | 1014.9 |
| 20260504181435 | 75 | 214 | 1.0 | 2.0 | 0.00 | 0.00 | 0.00 | 32 | 1015.1 |
| 20260504180934 | 75 | 207 | 3.0 | 3.0 | 0.00 | 0.00 | 0.00 | 34 | 1015.1 |
| 20260504180432 | 74 | 142 | 1.0 | 2.0 | 0.00 | 0.00 | 0.00 | 32 | 1014.9 |
| 20260504175930 | 74 | 148 | 1.0 | 2.0 | 0.00 | 0.00 | 0.00 | 36 | 1015.1 |
| 20260504175427 | 74 | 133 | 1.0 | 4.0 | 0.00 | 0.00 | 0.00 | 33 | 1015.2 |
| 20260504174925 | 74 | 209 | 2.0 | 2.0 | 0.00 | 0.00 | 0.00 | 34 | 1015.1 |
| 20260504174422 | 73 | 192 | 1.0 | 2.0 | 0.00 | 0.00 | 0.00 | 35 | 1015.2 |
| 20260504173919 | 72 | 195 | 2.0 | 3.0 | 0.00 | 0.00 | 0.00 | 34 | 1015.4 |
| 20260504173416 | 72 | 172 | 2.0 | 3.0 | 0.00 | 0.00 | 0.00 | 34 | 1015.3 |
| 20260504172913 | 74 | 207 | 3.0 | 4.0 | 0.00 | 0.00 | 0.00 | 33 | 1015.3 |
| 20260504172409 | 75 | 157 | 5.0 | 6.0 | 0.00 | 0.00 | 0.00 | 32 | 1015.5 |
| 20260504171905 | 76 | 175 | 1.0 | 3.0 | 0.00 | 0.00 | 0.00 | 36 | 1015.5 |
| 20260504171403 | 75 | 160 | 0.0 | 1.0 | 0.00 | 0.00 | 0.00 | 33 | 1015.6 |
| 20260504170900 | 75 | 118 | 1.0 | 2.0 | 0.00 | 0.00 | 0.00 | 32 | 1015.7 |
| 20260504170356 | 75 | 174 | 1.0 | 2.0 | 0.00 | 0.00 | 0.00 | 34 | 1015.9 |
| 20260504160315 | 73 | 18 | 1.0 | 4.0 | 0.00 | 0.00 | 0.00 | 32 | 1016.3 |
| 20260504150739 | 72 | 201 | 1.0 | 1.0 | 0.00 | 0.00 | 0.00 | 37 | 1016.9 |
| 20260504150236 | 70 | 160 | 0.0 | 0.0 | 0.00 | 0.00 | 0.00 | 36 | 1016.9 |
| 20260504141206 | 66 | 164 | 0.0 | 0.0 | 0.00 | 0.00 | 0.00 | 46 | 1016.9 |
| 20260504140703 | 66 | 164 | 0.0 | 0.0 | 0.00 | 0.00 | 0.00 | 46 | 1017.0 |
| 20260504140158 | 66 | 164 | 0.0 | 0.0 | 0.00 | 0.00 | 0.00 | 46 | 1017.0 |
| 20260504130626 | 62 | 198 | 1.0 | 2.0 | 0.00 | 0.00 | 0.00 | 48 | 1017.4 |
| 20260504130123 | 61 | 141 | 0.0 | 0.0 | 0.00 | 0.00 | 0.00 | 50 | 1017.3 |
| 20260504110503 | 48 | 160 | 0.0 | 0.0 | 0.00 | 0.00 | 0.00 | 72 | 1017.7 |
| 20260504100419 | 49 | 129 | 0.0 | 0.0 | 0.00 | 0.00 | 0.00 | 70 | 1017.7 |
| 20260504081812 | 48 | 133 | 0.0 | 0.0 | 0.00 | 0.00 | 0.00 | 70 | 1018.1 |
| 20260504081309 | 47 | 143 | 0.0 | 0.0 | 0.00 | 0.00 | 0.00 | 73 | 1018.1 |
| 20260504080805 | 48 | 145 | 0.0 | 0.0 | 0.00 | 0.00 | 0.00 | 73 | 1018.2 |
| 20260504080302 | 48 | 145 | 0.0 | 0.0 | 0.00 | 0.00 | 0.00 | 73 | 1018.0 |
| 20260504070229 | 47 | 135 | 0.0 | 0.0 | 0.00 | 0.00 | 0.00 | 74 | 1018.1 |
| 20260504060150 | 43 | 120 | 0.0 | 0.0 | 0.00 | 0.00 | 0.00 | 80 | 1018.2 |
| 20260504050618 | 44 | 133 | 0.0 | 0.0 | 0.00 | 0.00 | 0.00 | 77 | 1018.0 |
| 20260504050115 | 44 | 131 | 0.0 | 0.0 | 0.00 | 0.00 | 0.00 | 76 | 1018.0 |
| 20260504045612 | 44 | 134 | 0.0 | 0.0 | 0.00 | 0.00 | 0.00 | 76 | 1018.0 |
| 20260504045107 | 44 | 131 | 0.0 | 0.0 | 0.00 | 0.00 | 0.00 | 76 | 1018.0 |
| 20260504044605 | 44 | 141 | 0.0 | 0.0 | 0.00 | 0.00 | 0.00 | 76 | 1018.1 |
| 20260504044102 | 44 | 128 | 0.0 | 0.0 | 0.00 | 0.00 | 0.00 | 75 | 1018.0 |
| 20260504043559 | 45 | 138 | 0.0 | 0.0 | 0.00 | 0.00 | 0.00 | 74 | 1018.0 |
| 20260504043056 | 45 | 134 | 0.0 | 0.0 | 0.00 | 0.00 | 0.00 | 73 | 1018.0 |
| 20260504042553 | 45 | 132 | 0.0 | 0.0 | 0.00 | 0.00 | 0.00 | 73 | 1018.1 |
| 20260504042050 | 45 | 127 | 0.0 | 0.0 | 0.00 | 0.00 | 0.00 | 73 | 1018.1 |
| 20260504041545 | 44 | 133 | 0.0 | 0.0 | 0.00 | 0.00 | 0.00 | 75 | 1017.9 |
| 20260504041042 | 44 | 135 | 0.0 | 0.0 | 0.00 | 0.00 | 0.00 | 76 | 1017.9 |
| 20260504040539 | 44 | 133 | 0.0 | 0.0 | 0.00 | 0.00 | 0.00 | 76 | 1018.0 |
| 20260504040036 | 44 | 133 | 0.0 | 0.0 | 0.00 | 0.00 | 0.00 | 77 | 1017.9 |
| 20260504035533 | 44 | 132 | 0.0 | 0.0 | 0.00 | 0.00 | 0.00 | 76 | 1017.9 |
| 20260504035029 | 44 | 124 | 0.0 | 0.0 | 0.00 | 0.00 | 0.00 | 76 | 1017.9 |
| 20260504034527 | 44 | 129 | 0.0 | 0.0 | 0.00 | 0.00 | 0.00 | 76 | 1017.9 |
| 20260504034024 | 44 | 130 | 0.0 | 0.0 | 0.00 | 0.00 | 0.00 | 75 | 1018.0 |
| 20260504033522 | 44 | 128 | 0.0 | 0.0 | 0.00 | 0.00 | 0.00 | 75 | 1018.0 |
| 20260504033019 | 44 | 132 | 0.0 | 0.0 | 0.00 | 0.00 | 0.00 | 75 | 1018.0 |
| 20260504032516 | 44 | 131 | 0.0 | 0.0 | 0.00 | 0.00 | 0.00 | 74 | 1017.7 |
| 20260504032012 | 44 | 131 | 0.0 | 0.0 | 0.00 | 0.00 | 0.00 | 74 | 1017.8 |
| 20260504031509 | 44 | 129 | 0.0 | 0.0 | 0.00 | 0.00 | 0.00 | 72 | 1017.7 |
| 20260504031005 | 45 | 135 | 0.0 | 0.0 | 0.00 | 0.00 | 0.00 | 73 | 1017.8 |
| 20260504030503 | 45 | 143 | 0.0 | 0.0 | 0.00 | 0.00 | 0.00 | 72 | 1017.9 |
| 20260504025959 | 45 | 145 | 0.0 | 0.0 | 0.00 | 0.00 | 0.00 | 72 | 1017.8 |
| 20260504025456 | 45 | 143 | 0.0 | 0.0 | 0.00 | 0.00 | 0.00 | 71 | 1017.8 |
| 20260504024953 | 45 | 144 | 0.0 | 0.0 | 0.00 | 0.00 | 0.00 | 71 | 1017.6 |
| 20260504024450 | 45 | 145 | 0.0 | 0.0 | 0.00 | 0.00 | 0.00 | 69 | 1017.8 |
| 20260504023947 | 45 | 148 | 0.0 | 0.0 | 0.00 | 0.00 | 0.00 | 70 | 1017.7 |
| 20260504023444 | 45 | 148 | 0.0 | 0.0 | 0.00 | 0.00 | 0.00 | 71 | 1017.7 |
| 20260504022939 | 45 | 150 | 0.0 | 0.0 | 0.00 | 0.00 | 0.00 | 70 | 1017.7 |
| 20260504022435 | 46 | 147 | 0.0 | 0.0 | 0.00 | 0.00 | 0.00 | 69 | 1017.6 |
| 20260504021932 | 46 | 142 | 0.0 | 0.0 | 0.00 | 0.00 | 0.00 | 70 | 1017.8 |
| 20260504021429 | 46 | 141 | 0.0 | 0.0 | 0.00 | 0.00 | 0.00 | 70 | 1017.7 |
| 20260504020926 | 46 | 141 | 0.0 | 0.0 | 0.00 | 0.00 | 0.00 | 69 | 1017.6 |
| 20260504020423 | 46 | 137 | 0.0 | 0.0 | 0.00 | 0.00 | 0.00 | 69 | 1017.7 |
| 20260504015920 | 46 | 141 | 0.0 | 0.0 | 0.00 | 0.00 | 0.00 | 68 | 1017.6 |
| 20260504015415 | 46 | 145 | 0.0 | 0.0 | 0.00 | 0.00 | 0.00 | 66 | 1017.5 |
| 20260504014912 | 47 | 145 | 0.0 | 0.0 | 0.00 | 0.00 | 0.00 | 65 | 1017.6 |
| 20260504014408 | 47 | 149 | 0.0 | 0.0 | 0.00 | 0.00 | 0.00 | 65 | 1017.6 |
| 20260504013904 | 47 | 152 | 0.0 | 0.0 | 0.00 | 0.00 | 0.00 | 66 | 1017.7 |
| 20260504013403 | 47 | 152 | 0.0 | 0.0 | 0.00 | 0.00 | 0.00 | 66 | 1017.6 |
| 20260504012859 | 47 | 152 | 0.0 | 0.0 | 0.00 | 0.00 | 0.00 | 64 | 1017.5 |
| 20260504012356 | 48 | 150 | 0.0 | 0.0 | 0.00 | 0.00 | 0.00 | 63 | 1017.7 |
| 20260504011849 | 48 | 150 | 0.0 | 0.0 | 0.00 | 0.00 | 0.00 | 61 | 1017.7 |
| 20260504011345 | 48 | 151 | 0.0 | 0.0 | 0.00 | 0.00 | 0.00 | 62 | 1017.5 |
| 20260504010841 | 49 | 152 | 0.0 | 0.0 | 0.00 | 0.00 | 0.00 | 60 | 1017.5 |
| 20260504010337 | 49 | 152 | 0.0 | 0.0 | 0.00 | 0.00 | 0.00 | 60 | 1017.6 |
| 20260504005834 | 50 | 153 | 0.0 | 0.0 | 0.00 | 0.00 | 0.00 | 57 | 1017.6 |
| 20260504005330 | 50 | 153 | 0.0 | 0.0 | 0.00 | 0.00 | 0.00 | 58 | 1017.5 |
| 20260504004828 | 50 | 152 | 0.0 | 0.0 | 0.00 | 0.00 | 0.00 | 56 | 1017.6 |
| 20260504004326 | 51 | 152 | 0.0 | 0.0 | 0.00 | 0.00 | 0.00 | 54 | 1017.4 |
| 20260504003822 | 51 | 154 | 0.0 | 0.0 | 0.00 | 0.00 | 0.00 | 52 | 1017.2 |
| 20260504003319 | 52 | 154 | 0.0 | 0.0 | 0.00 | 0.00 | 0.00 | 51 | 1017.2 |
| 20260504002816 | 52 | 154 | 0.0 | 0.0 | 0.00 | 0.00 | 0.00 | 49 | 1017.3 |
| 20260504002312 | 53 | 156 | 0.0 | 0.0 | 0.00 | 0.00 | 0.00 | 48 | 1017.2 |
| 20260504001810 | 53 | 156 | 0.0 | 0.0 | 0.00 | 0.00 | 0.00 | 47 | 1017.1 |
| 20260504001307 | 54 | 154 | 0.0 | 0.0 | 0.00 | 0.00 | 0.00 | 46 | 1017.3 |
| 20260504000804 | 54 | 153 | 0.0 | 0.0 | 0.00 | 0.00 | 0.00 | 45 | 1017.1 |
| 20260504000301 | 55 | 155 | 0.0 | 0.0 | 0.00 | 0.00 | 0.00 | 44 | 1016.9 |
| 20260503235759 | 56 | 157 | 0.0 | 0.0 | 0.00 | 0.00 | 0.00 | 42 | 1016.9 |
| 20260503235256 | 57 | 161 | 0.0 | 0.0 | 0.00 | 0.00 | 0.00 | 41 | 1016.9 |
| 20260503234754 | 57 | 162 | 0.0 | 0.0 | 0.00 | 0.00 | 0.00 | 39 | 1016.8 |
| 20260503234251 | 58 | 172 | 0.0 | 0.0 | 0.00 | 0.00 | 0.00 | 41 | 1016.9 |